This is the latest recevied weather packets stored in our database for station/object W4NDF-13. If no packets are shown the sender has not sent any weather packets the latest 10 day(s).
| Time | Temp. | Humidity | Pressure | Rain* | Wind** | Luminosity | Snow |
|---|---|---|---|---|---|---|---|
| 1778033829 | 23.89° C | 87% | 1013 hPa | 0 mm | - | 0 W/m² | - |
| 1778033526 | 23.89° C | 87% | 1013.2 hPa | 0 mm | - | 0 W/m² | - |
| 1778033223 | 23.89° C | 87% | 1013.1 hPa | 0 mm | - | 0 W/m² | - |
| 1778032921 | 23.89° C | 86% | 1013.2 hPa | 0 mm | - | 0 W/m² | - |
| 1778032618 | 24.44° C | 85% | 1012.9 hPa | 0 mm | - | 0 W/m² | - |
| 1778032315 | 24.44° C | 84% | 1013.2 hPa | 0 mm | - | 0 W/m² | - |
| 1778032012 | 24.44° C | 83% | 1013.3 hPa | 0 mm | - | 0 W/m² | - |
| 1778031708 | 24.44° C | 84% | 1013 hPa | 0 mm | - | 0 W/m² | - |
| 1778031406 | 24.44° C | 85% | 1012.9 hPa | 0 mm | - | 0 W/m² | - |
| 1778031103 | 24.44° C | 85% | 1012.9 hPa | 0 mm | - | 0 W/m² | - |
| 1778030799 | 24.44° C | 84% | 1012.9 hPa | 0 mm | - | 0 W/m² | - |
| 1778030496 | 24.44° C | 83% | 1012.9 hPa | 0 mm | - | 0 W/m² | - |
| 1778030194 | 24.44° C | 83% | 1013.1 hPa | 0 mm | - | 0 W/m² | - |
| 1778029889 | 24.44° C | 82% | 1012.8 hPa | 0 mm | - | 0 W/m² | - |
| 1778029588 | 25° C | 82% | 1012.5 hPa | 0 mm | - | 0 W/m² | - |
| 1778029285 | 25° C | 82% | 1012.5 hPa | 0 mm | - | 0 W/m² | - |
| 1778028982 | 25° C | 82% | 1012.9 hPa | 0 mm | - | 0 W/m² | - |
| 1778028678 | 25° C | 82% | 1012.8 hPa | 0 mm | - | 1 W/m² | - |
| 1778028375 | 25° C | 82% | 1013 hPa | 0 mm | - | 1 W/m² | - |
| 1778028072 | 25° C | 81% | 1013.2 hPa | 0 mm | - | 2 W/m² | - |
| 1778027769 | 25° C | 80% | 1013 hPa | 0 mm | - | 4 W/m² | - |
| 1778027465 | 25° C | 80% | 1013.2 hPa | 0 mm | - | 7 W/m² | - |
| 1778027160 | 25° C | 80% | 1013.2 hPa | 0 mm | - | 14 W/m² | - |
| 1778026857 | 25° C | 79% | 1013.2 hPa | 0 mm | - | 20 W/m² | - |
| 1778026553 | 25° C | 79% | 1012.9 hPa | 0 mm | - | 25 W/m² | - |
* Rain latest hour (hover to see other rain measurements)
** Current wind speed in m/s (hover to see current wind gust speed)